DW6576 Weather Reports


Display with metric or nautical units.
time (UTC)temp
F
wind
direction
speed
MPH
gust
MPH
rain 1hr
in
rain 24hr
in
rain mn
in
humidity
%
barometer
mb
20180719054306 73 231 0.0 0.0 0.00 0.00 0.00 50 1003.9
20180719052805 74 232 0.0 0.0 0.00 0.00 0.00 49 1003.9
20180719051305 75 232 0.0 0.0 0.00 0.00 0.00 47 1004.0
20180719045804 76 232 0.0 0.0 0.00 0.00 0.00 45 1003.9
20180719044301 77 232 0.0 0.0 0.00 0.00 0.00 42 1003.9
20180719042800 78 236 0.0 1.0 0.00 0.00 0.00 41 1003.9
20180719041300 76 269 0.0 1.0 0.00 0.00 0.00 45 1003.8
20180719035802 77 342 0.0 0.0 0.00 0.00 0.00 42 1003.6
20180719034301 79 342 0.0 0.0 0.00 0.00 0.00 40 1003.6
20180719032802 81 343 0.0 0.0 0.00 0.00 0.00 37 1003.4
20180719031258 83 342 0.0 0.0 0.00 0.00 0.00 33 1003.3
20180719025756 85 342 0.0 1.0 0.00 0.00 0.00 30 1003.3
20180719024300 86 285 1.0 3.0 0.00 0.00 0.00 29 1003.1
20180719022759 86 328 1.0 6.0 0.00 0.00 0.00 28 1003.0
20180719021259 86 285 1.0 7.0 0.00 0.00 0.00 27 1003.0
20180719015759 87 186 0.0 1.0 0.00 0.00 0.00 24 1002.8
20180719014255 88 250 0.0 1.0 0.00 0.00 0.00 24 1002.8
20180719012757 89 278 0.0 1.0 0.00 0.00 0.00 24 1002.7
20180719011255 90 266 0.0 1.0 0.00 0.00 0.00 24 1002.6
20180719005755 90 314 0.0 3.0 0.00 0.00 0.00 22 1002.6
20180719004253 91 274 0.0 6.0 0.00 0.00 0.00 22 1002.4
20180719002753 91 281 0.0 4.0 0.00 0.00 0.00 22 1002.4
20180719001249 92 294 1.0 7.0 0.00 0.00 0.00 21 1002.5
20180718235748 92 302 3.0 0.0 0.00 0.00 0.00 21 1002.7
20180718234247 95 330 3.0 10.0 0.00 0.00 0.00 20 1002.6
20180718232750 96 278 1.0 6.0 0.00 0.00 0.00 19 1002.7
20180718231246 96 314 2.0 7.0 0.00 0.00 0.00 19 1002.7
20180718225745 96 243 0.0 6.0 0.00 0.00 0.00 21 1002.9
20180718224243 97 274 4.0 10.0 0.00 0.00 0.00 20 1003.1
20180718222741 97 253 1.0 6.0 0.00 0.00 0.00 17 1003.1
20180718221243 97 103 1.0 6.0 0.00 0.00 0.00 18 1003.2
20180718215737 96 6 1.0 5.0 0.00 0.00 0.00 17 1003.4
20180718214245 97 287 2.0 8.0 0.00 0.00 0.00 18 1003.8
20180718212735 97 226 1.0 7.0 0.00 0.00 0.00 20 1004.0
20180718211232 97 269 2.0 7.0 0.00 0.00 0.00 22 1004.3
20180718205730 96 173 0.0 3.0 0.00 0.00 0.00 23 1004.6
20180718204224 95 318 1.0 6.0 0.00 0.00 0.00 24 1004.8
20180718202722 96 288 1.0 6.0 0.00 0.00 0.00 24 1005.2
20180718201224 95 327 1.0 5.0 0.00 0.00 0.00 25 1005.4
20180718195721 94 303 1.0 6.0 0.00 0.00 0.00 26 1005.6
20180718194216 94 284 2.0 7.0 0.00 0.00 0.00 26 1005.9
20180718192711 93 230 1.0 4.0 0.00 0.00 0.00 26 1006.1
20180718191207 92 347 0.0 4.0 0.00 0.00 0.00 26 1006.5
20180718185710 91 336 2.0 9.0 0.00 0.00 0.00 28 1006.7
20180718184204 92 288 1.0 6.0 0.00 0.00 0.00 26 1007.0
20180718182702 91 46 0.0 4.0 0.00 0.00 0.00 28 1007.1
20180718181158 90 333 0.0 2.0 0.00 0.00 0.00 29 1007.5
20180718175658 90 267 1.0 4.0 0.00 0.00 0.00 28 1007.7
20180718174157 89 284 0.0 5.0 0.00 0.00 0.00 31 1008.0
20180718172657 90 1 1.0 4.0 0.00 0.00 0.00 29 1008.1
20180718171154 90 212 0.0 2.0 0.00 0.00 0.00 30 1008.2
20180718165651 88 292 0.0 3.0 0.00 0.00 0.00 30 1008.3
20180718164148 88 307 0.0 2.0 0.00 0.00 0.00 32 1008.5
20180718162649 88 302 0.0 1.0 0.00 0.00 0.00 33 1008.6
20180718161142 86 131 0.0 2.0 0.00 0.00 0.00 34 1008.7
20180718155641 86 269 0.0 2.0 0.00 0.00 0.00 35 1008.7
20180718154136 84 219 0.0 3.0 0.00 0.00 0.00 36 1008.8
20180718152634 82 203 1.0 4.0 0.00 0.00 0.00 38 1009.0
20180718151130 81 163 0.0 4.0 0.00 0.00 0.00 39 1009.1
20180718145628 80 177 0.0 2.0 0.00 0.00 0.00 40 1009.0
20180718144126 79 250 0.0 3.0 0.00 0.00 0.00 40 1009.2
20180718142624 79 212 0.0 3.0 0.00 0.00 0.00 40 1009.1
20180718141122 79 207 0.0 2.0 0.00 0.00 0.00 40 1009.1
20180718135621 78 263 0.0 3.0 0.00 0.00 0.00 41 1009.1
20180718134119 78 84 0.0 0.0 0.00 0.00 0.00 46 1009.2
20180718132614 75 84 0.0 0.0 0.00 0.00 0.00 49 1009.0
20180718131110 71 85 0.0 1.0 0.00 0.00 0.00 52 1009.0
20180718125614 68 82 0.0 1.0 0.00 0.00 0.00 55 1009.0
20180718124111 66 87 0.0 1.0 0.00 0.00 0.00 57 1009.1
20180718122613 65 96 0.0 2.0 0.00 0.00 0.00 58 1008.9
20180718121109 65 87 0.0 0.0 0.00 0.00 0.00 59 1008.9
20180718115607 65 88 0.0 0.0 0.00 0.00 0.00 58 1008.7
20180718114107 65 87 0.0 1.0 0.00 0.00 0.00 57 1008.8
20180718112607 65 104 0.0 0.0 0.00 0.00 0.00 59 1008.7
20180718111100 66 104 0.0 0.0 0.00 0.00 0.00 58 1008.4
20180718105600 66 102 0.0 1.0 0.00 0.00 0.00 58 1008.3
20180718104102 66 92 0.0 0.0 0.00 0.00 0.00 56 1008.2
20180718102558 66 92 0.0 0.0 0.00 0.00 0.00 56 1008.1
20180718101054 67 93 0.0 0.0 0.00 0.00 0.00 57 1008.2
20180718095555 68 94 0.0 1.0 0.00 0.00 0.00 54 1008.0
20180718094054 69 86 0.0 1.0 0.00 0.00 0.00 53 1007.9
20180718092552 69 104 0.0 0.0 0.00 0.00 0.00 54 1007.9
20180718091048 69 94 0.0 0.0 0.00 0.00 0.00 54 1007.7
20180718085545 69 93 0.0 1.0 0.00 0.00 0.00 54 1007.8
20180718084047 70 91 0.0 1.0 0.00 0.00 0.00 52 1008.0
20180718082539 70 200 0.0 0.0 0.00 0.00 0.00 50 1008.1
20180718081036 72 207 0.0 1.0 0.00 0.00 0.00 49 1008.1
20180718075538 72 98 0.0 2.0 0.00 0.00 0.00 47 1008.1
20180718074036 72 92 0.0 2.0 0.00 0.00 0.00 47 1008.1
20180718072533 72 155 0.0 3.0 0.00 0.00 0.00 46 1008.2
20180718071032 72 46 2.0 5.0 0.00 0.00 0.00 46 1008.1
20180718065533 71 134 0.0 1.0 0.00 0.00 0.00 49 1008.1
20180718064028 71 127 0.0 1.0 0.00 0.00 0.00 49 1008.3
20180718062527 72 127 0.0 2.0 0.00 0.00 0.00 48 1008.3
20180718061024 72 91 0.0 2.0 0.00 0.00 0.00 48 1008.3
20180718055522 72 100 0.0 1.0 0.00 0.00 0.00 49 1008.1